Wind_Speed
4 5 5 8 12 12 5 5 3 5 6 5 3 1 3 4 2 3 6 9 11 13 14 14 14 14 14 14 14 13 13 13 12 11 11 11 11 11 12 14 15 16 16 17
2 3 1 3 5 10 8 10 12 12 16 10 10 12 12 7 3 3 8 9 11 11 12 12 13 13 13 13 12 12 13 13 12 11 11 11 11 12 12 13 15 15 16 17
3 2 3 2 6 8 7 6 10 11 9 8 6 6 3 3 3 3 7 11 13 13 13 12 12 12 12 12 13 13 13 13 12 12 12 12 13 13 14 15 17 18 17 16
1 3 4 4 2 1 8 5 8 11 10 11 12 9 7 7 5 4 4 11 13 14 13 12 12 13 13 13 13 13 13 13 13 13 14 14 15 15 15 16 16 17 16 16
2 2 5 4 4 1 3 3 1 5 6 8 7 9 15 11 6 6 5 9 13 13 12 12 14 14 15 15 15 15 15 14 14 15 15 16 16 15 16 16 15 14 14 14
1 2 1 6 3 0 2 4 0 4 7 9 4 4 5 6 4 4 5 5 9 11 11 12 14 15 17 17 17 16 16 16 16 16 17 17 17 17 17 15 13 12 13 12
3 2 2 4 3 3 4 3 3 5 8 5 3 5 6 5 3 1 4 9 12 12 12 13 15 17 18 18 18 17 16 17 17 17 17 18 17 17 17 15 13 12 13 12
2 2 2 3 3 4 5 3 3 4 4 3 3 3 4 5 4 3 3 4 7 9 11 14 15 16 18 18 18 16 17 17 18 18 18 18 17 16 15 15 15 13 13 13
3 3 3 1 4 4 4 5 3 4 4 2 1 3 2 4 4 5 5 3 1 3 5 8 10 12 14 14 14 14 16 17 18 18 19 18 17 16 16 16 16 16 15 15
3 4 3 3 3 3 2 2 1 2 2 3 5 4 4 4 5 5 5 4 2 1 3 5 6 7 9 11 12 13 15 17 19 19 18 17 17 17 17 18 18 18 18 18
6 1 3 5 8 5 1 1 1 2 3 4 2 3 3 3 4 4 4 4 3 2 2 5 6 7 9 10 12 13 15 17 19 18 18 18 18 17 17 18 18 19 20 19
1 8 7 6 11 8 2 2 3 3 2 4 4 3 3 3 3 4 5 6 6 5 6 8 9 12 13 12 13 14 15 17 18 18 19 19 19 19 18 18 17 19 20 21
6 14 12 12 9 6 2 4 5 6 4 2 2 1 0 1 2 2 3 5 6 7 8 9 11 12 13 14 14 15 15 16 16 16 19 20 20 20 20 18 19 21 23 22
7 12 4 5 4 6 5 6 6 5 5 4 2 1 1 1 2 4 6 7 7 8 9 10 11 12 12 14 15 16 15 16 17 17 18 20 21 21 20 19 20 21 24 25
8 9 11 11 9 7 6 6 6 5 4 3 3 4 5 7 9 11 12 13 13 12 11 11 12 12 13 13 14 15 16 17 17 17 18 18 18 20 20 20 20 21 22 24
16 13 9 7 6 7 6 6 5 5 5 5 6 7 9 11 13 14 14 14 13 13 13 14 14 15 14 15 15 14 14 16 17 18 17 17 17 18 20 21 22 22 24 24
13 7 7 6 5 5 6 7 7 6 5 6 8 9 9 9 10 11 12 12 12 13 13 14 17 16 14 14 15 16 16 15 16 17 18 17 17 18 20 21 23 24 26 26
11 11 9 9 8 7 6 6 6 6 6 6 6 6 7 8 9 10 11 11 11 11 12 13 14 14 14 13 14 15 16 16 16 18 19 18 17 18 19 21 23 25 26 29
8 9 9 8 8 9 8 6 5 4 4 4 7 8 9 9 10 11 11 12 10 9 9 11 11 11 12 12 13 14 16 16 17 17 19 20 20 21 21 22 23 25 26 27
8 6 7 7 6 5 4 3 1 4 5 5 6 6 7 8 8 9 10 10 10 11 12 12 12 11 12 12 13 14 15 17 18 19 20 22 23 24 24 24 24 25 26 28
6 7 6 7 5 4 2 1 2 3 6 7 6 7 7 8 9 10 10 9 9 12 12 12 12 13 13 14 14 15 17 19 20 21 23 24 24 25 25 25 26 26 26 27
6 6 6 5 5 6 7 1 4 5 6 8 8 8 9 10 10 10 10 9 12 14 14 14 14 15 15 15 15 15 15 16 18 20 22 23 24 25 25 26 27 27 27 27
5 6 8 8 6 4 4 6 5 6 9 10 10 11 11 12 12 12 10 13 15 15 16 16 16 17 17 17 16 16 16 17 17 17 18 20 22 24 25 26 27 26 27 27
8 8 8 9 10 8 6 8 9 9 10 11 12 12 12 12 12 12 13 15 16 17 17 17 17 17 18 19 19 19 19 19 18 19 19 20 20 20 22 24 25 26 27 27
11 11 12 13 12 11 8 10 11 10 11 12 12 12 12 13 13 14 15 16 16 17 18 18 19 20 20 19 20 20 21 21 21 21 21 21 22 22 22 23 23 23 24 25
12 14 14 14 15 14 13 12 12 12 12 13 12 12 12 12 13 14 15 17 18 19 20 21 22 22 23 23 23 23 23 23 23 23 24 24 24 23 24 24 24 24 24 24
14 15 16 17 17 16 15 14 14 14 14 13 12 11 11 12 14 15 17 19 20 21 23 23 24 24 24 24 24 24 24 25 25 25 26 26 26 26 26 25 25 25 25 25
Wind_Direction
46 68 91 158 181 187 183 217 233 313 259 271 346 339 345 348 57 161 182 171 168 166 167 170 171 176 183 197 203 208 210 215 222 231 241 252 264 272 275 275 274 272 268 266
57 63 63 105 173 196 224 232 244 260 280 302 296 297 288 256 2 214 204 196 181 178 175 178 182 186 196 205 210 213 216 222 231 240 250 261 270 276 281 283 280 276 270 264
108 169 161 196 219 203 213 235 239 242 259 324 291 295 340 249 290 267 216 203 194 191 186 188 189 195 206 213 216 218 225 235 242 250 257 263 271 277 279 281 283 278 274 270
88 190 205 87 86 317 227 246 251 269 289 289 285 284 288 297 295 298 242 209 203 199 198 195 196 206 213 222 227 227 233 242 248 255 259 263 269 274 279 282 283 284 277 266
281 231 118 156 121 165 230 120 360 283 302 308 298 276 272 252 261 269 271 220 208 203 199 199 209 217 222 228 230 234 240 248 254 257 260 267 273 274 276 282 285 288 283 274
335 264 186 89 106 347 261 185 139 301 316 326 308 267 86 21 304 284 231 194 198 198 200 207 218 224 228 232 236 241 242 250 255 257 263 268 273 274 277 277 280 285 275 257
249 320 78 76 89 164 236 79 36 344 340 340 333 3 360 359 5 333 204 201 193 192 206 215 224 231 231 234 240 245 247 251 255 260 264 269 270 270 273 270 264 263 263 253
209 241 219 127 156 289 35 31 3 8 351 325 4 27 27 41 48 75 107 155 191 206 222 233 237 238 239 240 246 248 248 254 259 263 266 271 270 268 269 263 258 250 245 237
309 48 74 113 310 319 316 319 340 352 7 20 345 20 31 51 56 68 68 70 129 211 230 239 239 237 242 245 247 248 252 257 262 264 268 268 265 268 269 263 256 247 241 237
301 93 38 349 318 323 287 287 155 108 94 88 104 80 66 55 38 43 62 57 40 333 269 255 244 236 237 243 244 252 257 261 263 265 266 262 261 264 263 260 256 246 237 236
261 94 93 91 26 352 292 205 169 127 116 92 108 74 38 20 10 3 359 349 326 325 284 278 268 250 251 253 255 260 264 265 266 266 263 261 262 265 266 265 259 252 242 239
28 26 341 350 346 336 285 192 157 135 122 115 109 95 72 37 25 16 358 347 334 309 285 270 272 277 268 260 262 264 268 268 271 269 264 263 264 264 265 262 249 243 236 237
332 322 306 294 306 304 243 207 183 170 163 133 116 112 89 299 344 16 12 357 342 329 315 300 286 273 266 263 262 265 267 267 272 272 268 266 264 264 263 259 252 239 233 231
332 339 318 9 328 291 243 218 200 198 204 203 226 284 270 258 280 302 314 316 312 313 314 308 298 290 277 266 263 264 265 267 271 275 276 275 268 263 262 258 254 247 232 227
345 327 292 295 293 270 229 206 197 205 216 235 267 283 288 290 293 297 301 303 303 303 300 299 296 291 280 272 271 270 268 269 272 275 280 281 275 261 257 256 254 249 238 234
307 313 308 282 262 253 230 219 224 231 241 261 279 289 295 298 299 300 301 302 302 299 300 305 299 284 278 273 268 270 273 273 272 272 278 279 274 262 255 254 251 247 242 240
322 327 329 316 266 238 226 224 218 226 247 272 289 296 301 305 306 305 304 301 297 293 295 302 300 291 281 275 275 275 275 272 270 272 274 281 281 271 262 259 256 254 247 246
293 289 290 284 271 241 233 232 240 254 270 283 296 303 308 311 314 319 320 316 308 302 297 296 299 295 296 286 277 274 274 274 271 271 277 276 280 281 275 268 264 260 259 254
290 284 274 264 230 219 224 232 251 262 274 300 302 303 307 311 315 314 311 311 313 315 311 312 306 296 291 291 285 281 278 275 275 275 276 279 279 278 278 276 273 269 266 264
302 284 273 260 240 218 212 204 194 297 298 306 308 312 314 314 316 320 319 313 314 321 322 318 313 310 304 295 286 285 285 283 280 277 276 277 276 277 279 279 278 276 272 268
291 287 279 265 231 169 172 180 295 323 323 313 313 315 317 321 326 329 330 332 325 326 327 323 314 308 306 302 298 293 285 279 277 277 276 275 276 276 277 278 279 278 277 275
296 286 281 269 250 227 207 182 294 302 309 309 313 315 318 319 323 324 322 322 325 326 327 327 325 321 318 315 309 302 297 293 287 282 279 279 279 279 279 280 280 279 278 276
289 281 267 250 227 216 248 264 281 304 298 304 310 313 315 317 319 325 321 321 323 323 323 324 322 320 320 319 317 311 306 302 297 293 290 286 283 281 280 279 279 279 278 277
278 272 278 276 278 262 293 292 289 293 301 307 310 310 313 314 315 318 319 320 321 321 321 321 321 320 318 317 316 314 311 308 303 300 296 291 289 288 288 285 283 280 279 277
275 273 271 276 283 290 288 287 286 289 301 311 310 311 314 315 317 319 319 322 322 320 321 322 321 319 318 315 313 311 310 309 306 304 302 299 296 294 289 287 286 285 283 281
272 273 273 269 270 273 278 282 283 286 299 308 307 312 317 321 324 326 328 328 326 324 322 321 319 317 315 313 312 311 309 307 305 304 303 302 300 298 295 292 289 286 284 283
270 268 270 271 270 270 270 276 278 282 287 298 298 301 309 314 319 321 324 326 324 323 321 320 318 316 314 313 311 309 307 305 304 303 302 301 299 298 297 296 292 289 287 285
Height
1450 1447 1448 1453 1453 1456 1465 1455 1458 1449 1449 1444 1444 1449 1452 1453 1455 1455 1457 1458 1460 1463 1466 1469 1472 1474 1477 1479 1482 1485 1488 1490 1492 1494 1495 1497 1498 1497 1498 1499 1500 1500 1499 1499
1456 1451 1450 1452 1452 1453 1456 1455 1454 1454 1451 1449 1451 1451 1451 1452 1454 1455 1457 1459 1461 1464 1466 1469 1471 1473 1476 1478 1480 1483 1485 1487 1490 1491 1493 1494 1495 1495 1495 1495 1496 1496 1495 1494
1454 1454 1453 1457 1453 1454 1455 1455 1454 1457 1452 1451 1451 1451 1452 1452 1453 1455 1456 1458 1460 1463 1465 1468 1470 1472 1474 1477 1479 1482 1484 1486 1488 1489 1490 1491 1492 1491 1492 1492 1492 1491 1491 1489
1449 1452 1452 1453 1455 1455 1455 1454 1454 1454 1453 1453 1452 1452 1453 1454 1454 1454 1454 1456 1459 1461 1464 1467 1469 1471 1473 1475 1477 1479 1481 1483 1485 1486 1487 1488 1489 1489 1489 1488 1488 1487 1485 1485
1450 1446 1452 1454 1454 1454 1454 1454 1454 1453 1452 1451 1451 1451 1450 1452 1453 1453 1454 1455 1458 1460 1463 1465 1467 1469 1472 1473 1475 1477 1479 1480 1482 1483 1484 1485 1485 1485 1485 1484 1484 1483 1482 1482
1454 1454 1447 1449 1454 1455 1456 1453 1454 1455 1452 1450 1451 1448 1446 1450 1450 1450 1450 1454 1456 1459 1461 1463 1465 1467 1469 1471 1472 1474 1476 1478 1479 1480 1481 1481 1481 1481 1481 1480 1479 1479 1480 1481
1449 1451 1449 1453 1455 1457 1456 1461 1455 1454 1453 1452 1450 1451 1451 1449 1449 1449 1449 1451 1453 1455 1458 1461 1463 1464 1466 1468 1469 1471 1473 1474 1475 1476 1477 1477 1478 1478 1478 1477 1477 1477 1478 1477
1452 1454 1457 1456 1458 1457 1456 1454 1455 1455 1454 1455 1455 1454 1453 1451 1450 1450 1450 1451 1453 1454 1456 1458 1460 1463 1464 1465 1465 1467 1469 1471 1472 1473 1473 1473 1473 1473 1473 1474 1474 1474 1474 1475
1454 1452 1455 1457 1456 1457 1457 1457 1456 1455 1454 1455 1455 1455 1455 1454 1453 1452 1452 1453 1453 1454 1455 1457 1459 1460 1461 1462 1463 1464 1466 1467 1468 1468 1469 1469 1469 1469 1469 1469 1470 1471 1472 1473
1455 1455 1455 1456 1457 1456 1456 1456 1456 1457 1457 1456 1456 1457 1457 1456 1455 1454 1454 1454 1454 1454 1456 1457 1458 1458 1459 1460 1461 1462 1464 1464 1464 1464 1464 1465 1465 1465 1465 1466 1466 1467 1468 1470
1452 1453 1454 1456 1457 1457 1456 1456 1456 1456 1456 1457 1457 1457 1458 1457 1456 1456 1456 1455 1455 1455 1456 1456 1457 1457 1458 1458 1459 1460 1460 1460 1460 1460 1460 1461 1461 1462 1462 1462 1463 1464 1465 1468
1460 1459 1458 1456 1457 1456 1456 1456 1457 1457 1456 1456 1457 1457 1458 1458 1457 1456 1456 1456 1456 1456 1455 1455 1455 1455 1455 1456 1456 1456 1456 1456 1456 1456 1456 1457 1457 1457 1458 1458 1459 1460 1463 1465
1461 1461 1459 1457 1456 1455 1456 1456 1456 1457 1457 1457 1457 1457 1457 1458 1457 1457 1457 1456 1455 1455 1454 1453 1452 1452 1452 1452 1452 1453 1452 1453 1452 1453 1452 1452 1453 1453 1454 1454 1455 1456 1458 1461
1461 1460 1457 1457 1456 1454 1454 1455 1455 1455 1456 1456 1456 1457 1457 1457 1457 1456 1455 1455 1454 1452 1451 1451 1450 1449 1448 1448 1448 1448 1448 1449 1448 1448 1448 1448 1448 1449 1450 1450 1451 1452 1454 1457
1460 1459 1458 1457 1455 1454 1454 1454 1455 1455 1455 1456 1456 1456 1456 1456 1455 1454 1453 1452 1451 1450 1449 1448 1447 1446 1445 1444 1444 1444 1444 1444 1444 1444 1444 1443 1443 1444 1445 1446 1447 1448 1450 1453
1456 1456 1455 1455 1454 1454 1454 1454 1454 1454 1454 1455 1455 1454 1454 1453 1452 1451 1449 1449 1448 1447 1446 1445 1443 1442 1441 1441 1440 1440 1440 1440 1440 1440 1440 1439 1439 1439 1440 1441 1442 1444 1446 1448
1457 1454 1453 1453 1453 1453 1453 1453 1453 1453 1453 1453 1453 1452 1451 1450 1449 1448 1446 1445 1444 1443 1442 1440 1439 1438 1437 1436 1436 1436 1436 1436 1436 1435 1435 1435 1435 1435 1436 1437 1438 1438 1440 1442
1456 1455 1453 1452 1452 1451 1451 1451 1452 1451 1451 1451 1450 1450 1449 1448 1447 1445 1443 1442 1440 1439 1438 1436 1435 1434 1433 1432 1432 1431 1431 1431 1432 1431 1431 1431 1431 1431 1431 1431 1432 1433 1434 1436
1451 1452 1452 1450 1449 1449 1449 1450 1450 1450 1450 1449 1449 1448 1447 1446 1444 1443 1441 1439 1438 1437 1436 1434 1432 1430 1429 1429 1428 1427 1427 1427 1427 1427 1426 1426 1426 1426 1426 1426 1426 1426 1427 1428
1451 1450 1450 1449 1449 1448 1448 1448 1449 1449 1449 1448 1447 1446 1445 1444 1443 1441 1439 1437 1435 1435 1433 1431 1429 1428 1426 1425 1424 1423 1422 1422 1422 1421 1421 1421 1420 1420 1419 1419 1419 1419 1419 1420
1451 1451 1449 1448 1448 1448 1449 1449 1449 1449 1449 1448 1446 1445 1444 1443 1441 1439 1437 1435 1434 1433 1431 1429 1427 1425 1423 1422 1420 1419 1418 1417 1416 1416 1415 1414 1413 1412 1412 1412 1412 1411 1411 1411
1450 1450 1449 1448 1447 1448 1448 1448 1448 1448 1448 1447 1445 1444 1443 1441 1440 1438 1436 1435 1433 1431 1429 1427 1425 1423 1420 1418 1416 1415 1413 1412 1410 1409 1408 1407 1406 1406 1405 1404 1404 1403 1403 1403
1448 1449 1449 1448 1446 1445 1446 1446 1446 1446 1446 1445 1444 1443 1441 1440 1438 1436 1434 1433 1431 1429 1426 1424 1422 1420 1417 1415 1413 1411 1409 1407 1406 1404 1403 1401 1400 1399 1397 1396 1396 1395 1394 1394
1447 1447 1447 1448 1447 1446 1445 1446 1445 1445 1444 1443 1441 1440 1439 1438 1436 1434 1432 1430 1428 1426 1424 1421 1419 1417 1414 1412 1409 1407 1405 1403 1401 1399 1397 1395 1394 1392 1390 1389 1388 1387 1386 1385
1444 1444 1444 1445 1445 1444 1443 1443 1443 1442 1441 1440 1438 1437 1436 1435 1433 1432 1430 1428 1425 1423 1421 1418 1415 1413 1410 1408 1406 1403 1401 1398 1396 1394 1392 1390 1388 1386 1384 1382 1381 1379 1378 1377
1438 1440 1440 1440 1441 1441 1441 1440 1440 1439 1438 1437 1436 1434 1433 1432 1430 1429 1427 1425 1422 1420 1417 1414 1412 1409 1406 1403 1400 1398 1395 1393 1391 1389 1387 1384 1382 1380 1378 1376 1374 1373 1371 1370
1432 1434 1435 1435 1436 1437 1437 1436 1436 1436 1435 1434 1433 1432 1430 1429 1427 1426 1424 1421 1419 1416 1413 1410 1407 1404 1400 1397 1394 1392 1389 1387 1385 1383 1380 1378 1375 1373 1371 1369 1367 1365 1364 1362